Theta_e
348 346 339 335 337 336 336 335 335 337 337 338 333 336 336 336 336 336 336 335 333 328 327 328 328 328 328 327 328 328 329 329 329 327 327 329 328 327
347 346 344 334 337 337 336 334 334 334 336 334 334 335 335 334 336 335 337 336 334 329 329 329 330 330 330 328 329 330 329 329 326 326 327 327 327 326
348 346 346 337 336 336 336 335 335 335 334 334 334 336 338 338 336 336 336 335 335 333 329 327 327 328 331 330 330 330 328 325 327 326 324 324 323 323
350 347 346 342 341 337 337 336 335 336 335 336 336 335 338 338 338 339 336 333 332 330 330 327 327 329 329 328 326 325 325 326 324 321 319 318 318 319
351 350 346 344 342 337 338 337 337 337 338 335 335 337 335 337 339 338 337 335 332 331 331 329 329 328 327 326 325 324 324 320 318 318 318 318 319 320
353 350 348 346 343 342 340 340 338 337 338 337 335 334 337 335 337 336 337 336 335 334 333 331 330 329 327 326 323 322 323 321 318 319 320 319 319 321
354 351 349 347 345 343 341 340 339 340 336 337 337 335 336 335 337 335 335 335 335 336 334 332 331 331 331 329 328 328 327 323 321 320 319 320 320 318
356 353 350 348 346 344 341 339 338 339 339 336 337 336 337 336 336 335 335 335 336 332 334 333 332 331 330 329 327 326 323 321 316 315 317 318 319 317
356 355 353 351 348 347 341 338 334 332 335 341 339 340 338 339 339 338 339 336 335 333 333 333 331 331 329 327 325 323 316 314 311 310 310 311 312 312
356 356 355 353 351 348 345 340 339 334 335 337 340 341 342 342 342 340 337 336 335 334 332 333 330 327 325 323 322 320 316 311 308 308 311 313 312 313
357 357 356 355 354 349 348 345 339 339 341 338 338 339 341 341 339 337 335 335 334 332 330 330 326 322 322 321 319 317 314 311 310 311 312 311 310 308
354 356 355 355 354 351 346 346 345 345 343 340 338 338 339 337 335 335 335 333 333 331 328 325 321 320 319 318 316 315 313 312 311 311 312 312 311 312
353 355 356 354 353 352 348 346 346 346 343 342 339 339 338 336 334 333 334 333 330 325 324 322 319 318 316 315 313 312 312 311 311 313 314 312 312 312
352 350 353 353 351 350 344 344 345 343 343 340 340 338 337 335 334 334 333 328 324 324 323 322 319 316 314 313 312 311 310 310 312 312 312 313 312 311
353 355 353 351 347 342 336 333 342 342 340 340 339 338 336 335 333 330 327 326 325 323 320 319 316 313 311 310 310 310 311 312 311 311 312 311 310 309
342 341 344 340 341 337 336 334 334 339 339 339 338 337 335 331 328 325 323 322 320 320 321 317 315 312 310 310 309 310 310 310 310 311 311 311 309 308
339 336 333 332 333 333 330 332 336 337 336 338 337 334 331 328 325 324 322 322 320 319 318 316 315 313 311 311 312 311 311 310 309 310 310 309 308 307
337 334 334 336 332 332 333 334 336 336 336 334 333 331 328 325 324 324 322 320 320 318 315 312 310 310 310 310 310 310 309 309 309 309 308 306 305 305
336 336 337 335 336 335 333 332 332 334 335 333 332 330 326 325 324 323 322 320 318 315 312 310 310 310 311 312 309 308 309 309 309 307 305 304 304 306
337 338 338 335 333 331 331 331 331 335 335 333 331 328 325 325 325 323 321 319 316 312 310 310 310 311 311 309 308 309 310 309 306 304 303 302 305 307
337 334 333 332 332 331 333 335 335 334 333 331 328 326 326 325 323 321 319 314 311 310 310 310 311 308 307 309 311 309 307 305 303 302 301 303 307 306
335 334 332 331 331 333 334 334 333 331 329 328 327 326 325 323 320 318 315 311 308 308 310 310 309 309 309 309 309 308 306 305 303 301 302 304 305 303
333 333 332 333 333 332 331 329 328 327 327 327 326 324 322 319 317 313 310 309 309 309 309 309 309 309 309 309 307 307 306 304 302 302 303 304 303 302
Wind_Speed
13 12 12 11 10 9 9 9 7 4 5 9 7 7 6 8 11 14 16 15 17 16 15 16 16 18 18 17 16 16 17 16 16 16 17 17 17 17
17 15 14 13 12 12 11 10 9 8 5 6 8 7 8 8 8 7 10 15 15 13 13 15 19 19 19 19 19 18 16 17 20 18 16 16 17 17
19 19 18 17 15 14 13 12 11 11 10 7 7 9 9 10 7 6 8 8 8 9 10 14 16 18 18 20 17 15 17 17 15 14 15 15 15 16
23 21 21 19 20 16 15 14 13 13 12 10 8 11 12 11 11 11 11 10 8 8 12 13 13 14 13 13 14 16 17 15 17 19 20 21 22 23
25 25 23 22 21 19 18 16 16 14 12 14 11 12 12 12 12 12 12 12 11 14 15 12 12 15 18 17 16 17 15 16 16 16 17 17 16 17
27 27 25 25 24 22 20 20 18 16 16 16 15 13 13 13 12 13 14 14 13 12 12 14 12 14 18 17 15 16 17 18 18 17 17 16 17 16
29 30 28 28 28 27 24 24 23 20 18 17 17 15 13 14 14 14 15 14 12 11 13 13 13 11 13 12 15 16 14 15 18 20 20 18 16 17
32 31 29 32 33 32 31 26 25 23 22 20 18 17 12 12 15 15 14 17 13 12 11 13 11 15 15 15 11 12 16 17 14 16 17 18 18 19
34 32 31 29 30 26 33 30 29 31 29 24 21 16 12 14 16 14 16 13 17 10 8 15 13 15 14 16 10 12 12 15 15 15 15 14 14 14
34 34 33 31 31 31 30 39 41 37 35 30 23 20 18 14 15 16 14 14 14 14 10 11 11 14 15 14 16 12 12 12 15 16 14 13 15 18
33 35 34 34 35 38 35 33 36 31 26 28 26 23 21 20 15 13 13 11 12 14 7 9 11 12 12 14 14 12 15 16 15 16 15 17 19 23
31 37 43 42 43 46 43 32 28 23 22 22 27 27 23 18 15 15 13 12 11 11 2 5 11 10 11 12 8 15 16 16 14 18 16 18 19 19
40 35 37 44 44 45 48 35 33 26 27 21 20 21 17 17 12 15 15 12 10 10 2 3 10 11 13 13 15 16 17 17 18 18 17 18 13 18
41 38 34 35 36 36 36 28 32 30 28 26 22 20 19 18 17 16 14 10 7 7 2 4 9 11 12 13 16 16 18 17 17 19 20 20 21 23
41 37 30 24 18 29 28 34 44 28 24 23 21 19 18 16 15 14 11 9 7 7 8 8 8 11 11 13 16 17 18 18 19 19 20 22 22 24
22 17 22 20 28 30 35 21 12 22 26 23 21 19 17 16 16 15 11 10 10 11 13 9 7 6 9 12 15 17 18 20 21 20 21 24 25 24
24 28 33 29 30 32 31 35 44 37 28 22 21 20 19 18 18 14 11 10 11 10 8 7 6 6 9 10 14 14 17 20 21 20 22 26 25 24
30 25 22 26 29 26 27 27 30 34 28 24 23 21 20 19 16 12 12 12 12 9 8 7 6 8 10 11 14 14 17 20 22 22 24 25 26 25
14 16 19 22 25 24 25 32 29 28 25 23 20 20 20 17 15 13 13 12 12 8 7 6 4 6 9 8 12 9 15 19 22 24 23 24 25 26
11 10 12 15 15 15 17 18 22 28 22 20 19 19 19 17 15 15 13 13 11 8 7 4 4 5 9 11 15 18 18 15 19 23 25 23 22 24
4 10 13 15 19 22 22 19 21 23 21 20 19 18 17 16 16 14 14 8 8 9 6 4 1 2 8 10 12 14 18 18 14 19 21 20 20 27
9 11 14 19 21 18 15 16 17 19 20 20 19 18 17 16 16 16 13 13 13 10 6 3 3 3 6 10 12 16 18 17 19 17 17 10 15 12
12 14 14 18 17 17 19 19 20 20 19 18 18 17 17 17 15 13 13 13 10 9 6 4 4 4 7 8 9 14 16 17 17 17 13 10 13 23
Wind_Direction
217 220 220 225 225 225 227 226 244 254 214 169 230 210 220 229 235 238 239 245 255 257 266 273 282 282 277 278 284 291 293 292 289 288 285 280 284 284
215 215 216 219 220 226 228 226 227 246 260 205 214 207 212 224 238 236 241 242 260 259 264 278 284 286 278 277 282 283 287 293 298 300 297 286 282 279
215 214 215 212 216 220 223 227 228 227 235 230 235 203 218 233 234 231 236 243 259 271 286 289 282 279 275 276 278 278 285 290 289 290 295 294 292 291
215 214 215 214 215 215 215 222 229 232 238 231 234 228 225 226 234 235 229 240 245 273 277 287 288 278 271 275 280 280 280 285 289 289 287 287 287 286
218 218 216 215 217 214 214 215 221 226 236 251 236 230 242 230 231 236 239 241 243 261 276 287 291 285 280 273 273 272 273 281 280 283 289 294 292 292
222 222 219 217 219 215 211 214 214 211 220 234 244 238 228 241 237 246 230 231 244 257 274 284 282 273 272 270 273 268 281 291 286 282 283 285 287 287
221 221 220 220 220 216 211 211 210 211 220 224 240 241 237 237 238 245 247 258 265 268 272 284 281 275 275 275 263 268 268 275 282 284 283 285 275 279
218 219 220 222 223 222 217 216 216 205 216 226 236 240 241 241 252 254 252 257 267 267 266 284 287 282 283 285 280 277 283 282 282 284 282 281 279 281
216 216 217 221 223 222 225 226 235 235 228 218 224 252 244 233 249 246 251 254 260 275 268 284 289 279 288 293 285 295 287 288 289 292 289 287 285 282
220 220 218 216 213 212 211 213 223 228 230 234 223 217 234 235 233 242 246 250 264 260 260 270 286 287 293 292 294 294 292 295 307 299 292 290 289 290
224 221 219 220 216 216 208 214 219 221 229 229 226 223 223 227 220 228 224 246 262 265 221 241 287 294 294 293 291 286 303 303 299 301 289 295 294 296
241 229 222 219 217 217 207 209 209 212 219 206 218 218 218 230 228 220 236 235 240 260 167 268 295 308 301 295 293 298 301 302 304 296 285 292 293 302
241 234 230 226 223 219 215 204 207 189 200 204 207 201 190 185 207 221 225 238 257 264 159 234 284 298 294 302 301 300 300 303 303 302 303 297 275 302
239 237 239 232 224 227 219 223 188 187 188 197 198 194 182 187 194 202 208 210 233 244 237 244 278 295 300 301 301 307 303 307 306 301 300 298 298 297
233 234 223 209 206 205 231 245 187 178 183 194 191 194 186 186 179 180 184 196 214 225 243 244 268 290 293 298 299 305 308 310 311 302 296 297 301 303
210 189 197 169 174 197 187 152 206 208 193 180 198 183 177 161 176 183 180 204 226 233 209 224 236 265 295 293 299 305 310 309 310 302 302 300 299 298
185 163 149 155 164 173 174 183 179 184 194 196 184 169 173 176 186 179 194 207 228 247 247 221 218 278 277 277 290 305 310 308 308 309 308 300 301 299
162 159 171 177 182 181 172 176 176 171 183 177 179 173 174 184 179 179 201 217 231 237 250 254 280 298 299 290 270 299 307 307 308 309 304 301 305 305
169 186 192 190 188 181 178 174 164 171 176 179 175 175 178 181 174 189 208 220 223 230 232 243 272 292 307 308 324 319 312 305 308 306 308 306 305 306
214 209 193 179 168 172 184 176 158 165 177 171 176 178 179 177 185 208 210 217 221 213 219 227 250 273 298 321 323 316 294 287 309 312 310 308 302 312
203 147 148 162 169 177 182 173 166 164 170 171 176 177 180 188 199 208 209 210 206 205 202 219 101 311 296 299 296 314 322 311 311 309 310 305 314 321
185 176 164 169 165 167 172 159 154 161 169 174 177 184 186 196 202 205 203 190 207 208 189 204 243 271 289 299 315 320 311 323 315 314 306 290 319 320
186 190 180 167 164 165 163 163 164 172 176 183 183 185 188 199 200 196 195 202 194 190 186 208 231 250 272 294 308 306 315 325 326 326 338 317 339 340